This is the latest recevied weather packets stored in our database for station/object VU3HGG-WX. If no packets are shown the sender has not sent any weather packets the latest 10 day(s).
| Time | Temp. | Humidity | Pressure | Rain* | Wind** | Luminosity | Snow |
|---|---|---|---|---|---|---|---|
| 1787938952 | 24.44° C | 74% | 911.7 hPa | - | - | - | - |
| 1787938352 | 24.44° C | 74% | 911.6 hPa | - | - | - | - |
| 1787938250 | 24.44° C | 74% | 911.6 hPa | - | - | - | - |
| 1787937744 | 25° C | 72% | 911.8 hPa | - | - | - | - |
| 1787937145 | 25° C | 72% | 911.9 hPa | - | - | - | - |
| 1787936545 | 25° C | 72% | 911.9 hPa | - | - | - | - |
| 1787935945 | 25° C | 72% | 911.9 hPa | - | - | - | - |
| 1787935345 | 24.44° C | 72% | 911.9 hPa | - | - | - | - |
| 1787934744 | 23.89° C | 69% | 911.9 hPa | - | - | - | - |
| 1787934697 | 23.33° C | 70% | 911.9 hPa | - | - | - | - |
| 1787934476 | 25.56° C | 65% | 911.9 hPa | - | - | - | - |
| 1787934075 | 26.11° C | 69% | 911.9 hPa | - | - | - | - |
| 1787933475 | 26.67° C | 65% | 911.7 hPa | - | - | - | - |
| 1787933281 | 26.67° C | 65% | 911.8 hPa | - | - | - | - |
| 1787933106 | 26.11° C | 67% | 911.6 hPa | - | - | - | - |
| 1787932665 | 26.11° C | 68% | 911.5 hPa | - | - | - | - |
| 1787932066 | 26.11° C | 68% | 911.4 hPa | - | - | - | - |
| 1787931465 | 26.11° C | 68% | 911.4 hPa | - | - | - | - |
| 1787930866 | 25.56° C | 68% | 911.2 hPa | - | - | - | - |
| 1787930265 | 25.56° C | 68% | 911.1 hPa | - | - | - | - |
| 1787929665 | 25.56° C | 68% | 911 hPa | - | - | - | - |
| 1787929576 | 26.11° C | 68% | 911 hPa | - | - | - | - |
| 1787928976 | 26.11° C | 67% | 910.7 hPa | - | - | - | - |
| 1787928376 | 26.11° C | 68% | 910.6 hPa | - | - | - | - |
| 1787927776 | 26.11° C | 68% | 910.3 hPa | - | - | - | - |
* Rain since midnight (hover to see other rain measurements)
** Current wind speed in m/s (hover to see current wind gust speed)